AUA115 LOWW-LSZH

Flight info

Callsign AUA115
Flight time N/A
Altitude 30000
Route SOVIL DCT SITNI DCT BAGSI DCT MATIG DCT TRAUN L856 NEGRA
Aircraft A320/M-SDE3FGHIRWY/LB1

Departure

Time 2026-04-21 11:32
Airport Vienna International Airport (LOWW)

Arrival

Time N/A
Airport Zürich Airport (LSZH)
Time Latitude Longitude Altitude Speed Heading
2026-04-21 11:07 48.11658 16.56955 610 ft 0 kts 26°
2026-04-21 11:23 48.11637 16.56940 621 ft 4 kts 29°
2026-04-21 11:23 48.11614 16.56918 620 ft 4 kts 39°
2026-04-21 11:24 48.11597 16.56890 621 ft 4 kts 71°
2026-04-21 11:24 48.11596 16.56867 622 ft 0 kts 116°
2026-04-21 11:28 48.11593 16.56875 620 ft 3 kts 116°
2026-04-21 11:28 48.11558 16.56918 616 ft 7 kts 162°
2026-04-21 11:28 48.11514 16.56905 616 ft 6 kts 204°
2026-04-21 11:28 48.11487 16.56887 611 ft 7 kts 205°
2026-04-21 11:29 48.11438 16.56852 614 ft 8 kts 205°
2026-04-21 11:29 48.11379 16.56822 612 ft 9 kts 174°
2026-04-21 11:29 48.11333 16.56895 625 ft 11 kts 116°
2026-04-21 11:29 48.11289 16.57030 615 ft 20 kts 116°
2026-04-21 11:30 48.11226 16.57222 620 ft 20 kts 116°
2026-04-21 11:30 48.11151 16.57451 618 ft 17 kts 116°
2026-04-21 11:30 48.11117 16.57556 615 ft 16 kts 116°
2026-04-21 11:30 48.11073 16.57646 613 ft 10 kts 153°
2026-04-21 11:31 48.11016 16.57627 613 ft 8 kts 205°
2026-04-21 11:31 48.10968 16.57593 621 ft 9 kts 206°
2026-04-21 11:31 48.10935 16.57473 609 ft 19 kts 290°
2026-04-21 11:31 48.11013 16.57234 616 ft 41 kts 297°
2026-04-21 11:32 48.11351 16.56203 621 ft 120 kts 295°
2026-04-21 11:32 48.11629 16.55364 613 ft 150 kts 297°
2026-04-21 11:32 48.12136 16.53894 1041 ft 162 kts 300°
2026-04-21 11:32 48.12338 16.52215 1811 ft 172 kts 265°
2026-04-21 11:33 48.11836 16.50551 2449 ft 183 kts 243°
2026-04-21 11:33 48.11120 16.48852 2755 ft 204 kts 242°
2026-04-21 11:33 48.10318 16.46939 3068 ft 230 kts 242°
2026-04-21 11:33 48.09414 16.44816 3505 ft 254 kts 240°
2026-04-21 11:34 48.08361 16.42594 4198 ft 267 kts 237°
2026-04-21 11:34 48.07238 16.40350 5083 ft 272 kts 237°
2026-04-21 11:34 48.06085 16.38076 5944 ft 276 kts 235°
2026-04-21 11:34 48.04921 16.35777 6801 ft 280 kts 237°
2026-04-21 11:35 48.03903 16.33298 7633 ft 280 kts 249°
2026-04-21 11:35 48.03371 16.30521 8474 ft 279 kts 265°
2026-04-21 11:35 48.03329 16.27622 9282 ft 280 kts 277°
2026-04-21 11:35 48.03390 16.24692 10085 ft 285 kts 274°
2026-04-21 11:36 48.03454 16.21651 10503 ft 303 kts 274°
2026-04-21 11:36 48.03522 16.18389 10780 ft 324 kts 275°
2026-04-21 11:36 48.03586 16.14982 11405 ft 331 kts 273°
2026-04-21 11:36 48.03621 16.12900 11858 ft 333 kts 274°